Location: Newark
(52.4787°S, 179.0532°W)
Time: 00:30:12
(UTC+00:00)

ISS - Pass Details

Date: 28 October 2019
Orbit: 412 x 421 km, 51.6° (Epoch: 14 November)

Event Time Altitude Azimuth Distance (km) Brightness Sun altitude
Rises 08:41:19 0° 262° (W) 2,383 1.0 -14.0°
Reaches altitude 10° 08:43:26 10° 265° (W) 1,518 -0.2 -14.3°
Maximum altitude 08:46:48 60° 345° (NNW) 491 -3.6 -14.6°
Enters shadow 08:48:09 32° 53° (NE) 759 -3.0 -14.8°
